Location: Zapote
(9.9191°N, 84.0597°W)
Time: 03:29:38
(UTC-06:00)

N. Korean satellite - Pass Details

Date: 31 January 2021
Orbit: 451 x 503 km, 97.2° (Epoch: 27 February)

Event Time Altitude Azimuth Distance (km) Brightness Sun altitude
Rises 04:04:02 0° 36° (NE) 2,446 10.4 -28.0°
Reaches altitude 10° 04:06:34 10° 57° (ENE) 1,576 9.6 -27.4°
Maximum altitude 04:08:50 17° 99° (E) 1,218 9.4 -26.9°
Drops below altitude 10° 04:11:06 10° 142° (SE) 1,582 9.8 -26.3°
Sets 04:13:39 0° 163° (SSE) 2,461 10.6 -25.7°
